Weather in Dubovitsa

Russia / Kursk Oblast     51°57′31″N   34°31′50″E
temp.,
°C
wind,
m/s
gust,
m/s
humid.,
%
clouds,
%
prec.,
mm/h
press.,
hPa
HPBL,
m
5 march, fri
fri500:000wnw51095100 0.1 1005563
03:00−3wnw499591 0.1 1007267
06:00−2wnw379399 0.0 1009297
09:00−5nnw359372 0.0 1011132
12:00−2wnw359124 0.0 1012354
15:00−1wnw358540 0.0 1013726
18:00−4wnw349091 0.0 101475
21:00−5nw339196 0.0 101649
6 march, sat
sat600:00−6wnw3491100 0.0 101764
03:00−7wnw3694100 0.0 1018125
06:00−9nw4892100 0.0 1018175
09:00−8nw5109470 0.0 1020349
12:00−4nw588235 0.0 1020870
15:00−3nw577542 0.3 10201209
18:00−6wnw478333 0.1 1020136
21:00−9w448617 0.1 102174
7 march, sun
sun700:00−10wsw47910 0.0 102194
03:00−9sw510910 0.0 1019184
06:00−8sw7138637 0.0 1016341
09:00−6sw9188469 0.0 1013580
12:00−2wsw121890100 0.1 10081181
15:000wsw121992100 0.6 10061298
18:00−3nw61490100 2.2 1006792
21:00−5wsw3389100 2.3 100662
8 march, mon
mon800:00−2wsw41096100 0.4 1005440
03:00−3w71487100 2.1 1004749
06:00−7w614870 0.0 1005469
09:00−9wnw6128220 0.0 1007512
12:00−7wnw610780 0.0 1009914
15:00−5wnw7117545 0.0 10101401
18:00−7w4108418 0.0 1011230
21:00−10w478713 0.0 1013106
9 march, tue
tue900:00−11w44880 0.0 101576
03:00−11w238619 0.0 101321
06:00−10nw239388 0.0 101438
09:00−9nnw579394 0.1 1016427
12:00−8nnw678498 0.1 1018762
15:00−8nnw588299 0.1 1020830
18:00−10wnw358726 0.0 102088
21:00−12wnw349113 0.0 102261